| time (UTC) | temp F | wind direction | speed knots | gust knots | rain 1hr in | rain 24hr in | rain mn in | humidity % | barometer mb |
| 20260509111551 | 71 | 203 | 0.0 | 0.0 | 0.00 | 0.00 | 0.00 | 94 | 1009.2 |
| 20260509110051 | 71 | 203 | 0.0 | 0.9 | 0.00 | 0.00 | 0.00 | 95 | 1008.5 |
| 20260509103045 | 70 | 203 | 0.0 | 1.7 | 0.00 | 0.00 | 0.00 | 94 | 1006.8 |
| 20260509101551 | 70 | 203 | 0.0 | 2.6 | 0.00 | 0.00 | 0.00 | 94 | 1006.8 |
| 20260509100041 | 70 | 203 | 0.0 | 7.0 | 0.00 | 0.00 | 0.00 | 94 | 1007.3 |
| 20260509094537 | 70 | 203 | 0.0 | 2.6 | 0.00 | 0.00 | 0.00 | 93 | 1008.3 |
| 20260509093035 | 70 | 203 | 0.0 | 0.0 | 0.00 | 0.00 | 0.00 | 93 | 1008.8 |
| 20260509091532 | 70 | 203 | 0.0 | 0.0 | 0.00 | 0.00 | 0.00 | 92 | 1009.0 |
| 20260509090031 | 70 | 203 | 0.0 | 0.0 | 0.00 | 0.00 | 0.00 | 92 | 1009.5 |
| 20260509084530 | 71 | 203 | 0.0 | 0.0 | 0.00 | 0.00 | 0.00 | 92 | 1009.5 |
| 20260509083036 | 71 | 203 | 0.0 | 0.0 | 0.00 | 0.00 | 0.00 | 92 | 1009.8 |
| 20260509081533 | 71 | 203 | 0.0 | 0.0 | 0.00 | 0.00 | 0.00 | 92 | 1010.1 |
| 20260509080028 | 71 | 203 | 0.0 | 0.0 | 0.00 | 0.00 | 0.00 | 92 | 1010.4 |
| 20260509074528 | 71 | 202 | 0.0 | 0.0 | 0.00 | 0.00 | 0.00 | 92 | 1010.3 |
| 20260509073027 | 71 | 203 | 0.0 | 0.0 | 0.00 | 0.00 | 0.00 | 92 | 1010.5 |
| 20260509071527 | 71 | 203 | 0.0 | 4.3 | 0.00 | 0.00 | 0.00 | 92 | 1010.4 |
| 20260509070026 | 71 | 204 | 0.0 | 0.0 | 0.00 | 0.00 | 0.00 | 91 | 1010.4 |
| 20260509064525 | 71 | 204 | 0.0 | 0.0 | 0.00 | 0.00 | 0.00 | 90 | 1010.1 |
| 20260509063022 | 72 | 204 | 0.0 | 2.6 | 0.00 | 0.00 | 0.00 | 89 | 1010.3 |
| 20260509061525 | 72 | 204 | 0.0 | 6.1 | 0.00 | 0.00 | 0.00 | 89 | 1010.1 |
| 20260509060021 | 72 | 204 | 1.7 | 5.2 | 0.00 | 0.00 | 0.00 | 90 | 1009.2 |
| 20260509054517 | 72 | 195 | 4.3 | 7.8 | 0.00 | 0.00 | 0.00 | 90 | 1010.2 |
| 20260509053014 | 72 | 201 | 1.7 | 2.6 | 0.00 | 0.00 | 0.00 | 89 | 1010.7 |
| 20260509051514 | 72 | 201 | 0.0 | 0.0 | 0.00 | 0.00 | 0.00 | 88 | 1010.8 |
| 20260509050009 | 72 | 201 | 0.0 | 0.0 | 0.00 | 0.00 | 0.00 | 87 | 1010.8 |
| 20260509044508 | 73 | 202 | 0.0 | 0.0 | 0.00 | 0.00 | 0.00 | 86 | 1010.7 |
| 20260509043009 | 73 | 201 | 0.0 | 0.0 | 0.00 | 0.00 | 0.00 | 86 | 1010.5 |
| 20260509041509 | 73 | 201 | 0.0 | 2.6 | 0.00 | 0.00 | 0.00 | 85 | 1010.3 |
| 20260509040006 | 73 | 201 | 0.9 | 2.6 | 0.00 | 0.00 | 0.00 | 85 | 1010.0 |
| 20260509034524 | 73 | 201 | 0.0 | 3.5 | 0.00 | 0.00 | 0.00 | 85 | 1009.6 |
| 20260509033106 | 73 | 201 | 2.6 | 3.5 | 0.00 | 0.00 | 0.00 | 84 | 1009.7 |
| 20260509031508 | 73 | 202 | 0.0 | 0.0 | 0.00 | 0.00 | 0.00 | 86 | 1009.6 |
| 20260509030005 | 73 | 202 | 0.0 | 0.0 | 0.00 | 0.00 | 0.00 | 86 | 1009.7 |
| 20260509024504 | 73 | 202 | 0.0 | 0.0 | 0.00 | 0.00 | 0.00 | 86 | 1009.4 |
| 20260509023005 | 72 | 201 | 0.0 | 0.0 | 0.00 | 0.00 | 0.00 | 86 | 1009.2 |
| 20260509021505 | 72 | 201 | 0.0 | 0.0 | 0.00 | 0.00 | 0.00 | 86 | 1008.9 |
| 20260509020002 | 72 | 201 | 0.0 | 0.0 | 0.00 | 0.00 | 0.00 | 86 | 1008.9 |
| 20260509014501 | 72 | 201 | 0.0 | 0.0 | 0.00 | 0.00 | 0.00 | 86 | 1008.8 |
| 20260509013003 | 72 | 201 | 0.0 | 0.0 | 0.00 | 0.00 | 0.00 | 86 | 1008.6 |
| 20260509011501 | 72 | 201 | 0.0 | 0.0 | 0.00 | 0.00 | 0.00 | 87 | 1008.4 |
| 20260509010104 | 73 | 201 | 0.0 | 3.5 | 0.00 | 0.00 | 0.00 | 87 | 1008.1 |
| 20260509004622 | 73 | 200 | 1.7 | 3.5 | 0.00 | 0.00 | 0.00 | 87 | 1008.0 |
| 20260509003059 | 73 | 201 | 1.7 | 2.6 | 0.00 | 0.00 | 0.00 | 84 | 1008.1 |
| 20260509001600 | 74 | 201 | 1.7 | 2.6 | 0.00 | 0.00 | 0.00 | 83 | 1008.3 |
| 20260509000057 | 74 | 201 | 0.0 | 1.7 | 0.00 | 0.00 | 0.00 | 81 | 1008.3 |
| 20260508234605 | 75 | 201 | 1.7 | 5.2 | 0.00 | 0.00 | 0.00 | 77 | 1008.4 |
| 20260508233057 | 75 | 200 | 4.3 | 7.0 | 0.00 | 0.00 | 0.00 | 76 | 1008.2 |
| 20260508231557 | 76 | 204 | 1.7 | 6.1 | 0.00 | 0.00 | 0.00 | 74 | 1008.2 |
| 20260508230055 | 75 | 203 | 0.9 | 8.7 | 0.00 | 0.00 | 0.00 | 75 | 1008.3 |
| 20260508224556 | 75 | 200 | 6.1 | 13.9 | 0.00 | 0.00 | 0.00 | 74 | 1008.0 |
| 20260508223053 | 74 | 201 | 1.7 | 12.2 | 0.00 | 0.00 | 0.00 | 76 | 1008.1 |
| 20260508221551 | 73 | 206 | 1.7 | 7.0 | 0.00 | 0.00 | 0.00 | 79 | 1008.3 |
| 20260508220046 | 72 | 207 | 3.5 | 5.2 | 0.00 | 0.00 | 0.00 | 79 | 1008.8 |
| 20260508214559 | 72 | 207 | 0.0 | 0.9 | 0.00 | 0.00 | 0.00 | 80 | 1009.5 |
| 20260508213041 | 72 | 207 | 0.0 | 0.0 | 0.00 | 0.00 | 0.00 | 80 | 1010.1 |
| 20260508211541 | 72 | 207 | 0.0 | 0.0 | 0.00 | 0.00 | 0.00 | 76 | 1009.8 |
| 20260508210043 | 73 | 207 | 0.0 | 0.0 | 0.00 | 0.00 | 0.00 | 75 | 1010.0 |
| 20260508204541 | 74 | 207 | 0.0 | 0.0 | 0.00 | 0.00 | 0.00 | 73 | 1010.5 |
| 20260508203039 | 75 | 207 | 0.0 | 0.9 | 0.00 | 0.00 | 0.00 | 71 | 1010.7 |
| 20260508201538 | 77 | 207 | 0.0 | 0.9 | 0.00 | 0.00 | 0.00 | 66 | 1010.3 |
| 20260508200041 | 78 | 207 | 0.0 | 0.9 | 0.00 | 0.00 | 0.00 | 65 | 1010.4 |
| 20260508194532 | 77 | 207 | 0.0 | 0.9 | 0.00 | 0.00 | 0.00 | 69 | 1010.7 |
| 20260508193033 | 75 | 207 | 0.0 | 3.5 | 0.00 | 0.00 | 0.00 | 71 | 1010.6 |
| 20260508191527 | 75 | 207 | 0.0 | 3.5 | 0.00 | 0.00 | 0.00 | 72 | 1010.9 |
| 20260508190039 | 73 | 207 | 1.7 | 3.5 | 0.00 | 0.00 | 0.00 | 73 | 1011.4 |
| 20260508184528 | 72 | 207 | 2.6 | 5.2 | 0.00 | 0.00 | 0.00 | 74 | 1011.6 |
| 20260508183028 | 72 | 207 | 3.5 | 5.2 | 0.00 | 0.00 | 0.00 | 74 | 1011.4 |
| 20260508181518 | 72 | 207 | 4.3 | 7.0 | 0.00 | 0.00 | 0.00 | 73 | 1011.9 |
| 20260508180012 | 72 | 207 | 5.2 | 7.8 | 0.00 | 0.00 | 0.00 | 72 | 1012.1 |
| 20260508174511 | 71 | 207 | 6.1 | 7.8 | 0.00 | 0.00 | 0.00 | 71 | 1012.3 |
| 20260508173008 | 72 | 207 | 2.6 | 7.8 | 0.00 | 0.00 | 0.00 | 70 | 1012.6 |
| 20260508171504 | 71 | 207 | 4.3 | 7.8 | 0.00 | 0.00 | 0.00 | 71 | 1012.7 |
| 20260508170001 | 70 | 207 | 4.3 | 5.2 | 0.00 | 0.00 | 0.00 | 74 | 1012.8 |
| 20260508164601 | 70 | 207 | 2.6 | 3.5 | 0.00 | 0.00 | 0.00 | 75 | 1013.4 |
| 20260508163055 | 69 | 207 | 3.5 | 5.2 | 0.00 | 0.00 | 0.00 | 77 | 1013.8 |
| 20260508161556 | 68 | 207 | 4.3 | 5.2 | 0.00 | 0.00 | 0.00 | 79 | 1014.1 |
| 20260508160053 | 68 | 207 | 1.7 | 4.3 | 0.00 | 0.00 | 0.00 | 79 | 1014.2 |
| 20260508154552 | 68 | 207 | 1.7 | 4.3 | 0.00 | 0.00 | 0.00 | 79 | 1014.4 |
| 20260508153056 | 67 | 207 | 1.7 | 4.3 | 0.00 | 0.00 | 0.00 | 80 | 1014.6 |
| 20260508151550 | 67 | 207 | 0.0 | 0.0 | 0.00 | 0.00 | 0.00 | 78 | 1014.8 |
| 20260508150049 | 68 | 207 | 0.0 | 0.0 | 0.00 | 0.00 | 0.00 | 76 | 1014.6 |
| 20260508144552 | 68 | 207 | 0.0 | 0.0 | 0.00 | 0.00 | 0.00 | 74 | 1014.6 |
| 20260508143054 | 69 | 207 | 0.0 | 0.9 | 0.00 | 0.00 | 0.00 | 74 | 1014.6 |
| 20260508141556 | 68 | 207 | 0.0 | 0.9 | 0.00 | 0.00 | 0.00 | 74 | 1014.6 |
| 20260508140044 | 67 | 207 | 0.0 | 2.6 | 0.00 | 0.00 | 0.00 | 76 | 1014.7 |
| 20260508134542 | 66 | 207 | 0.0 | 4.3 | 0.00 | 0.00 | 0.00 | 79 | 1014.6 |
| 20260508133038 | 66 | 207 | 0.0 | 1.7 | 0.00 | 0.00 | 0.00 | 78 | 1014.9 |
| 20260508131535 | 64 | 207 | 1.7 | 4.3 | 0.00 | 0.00 | 0.00 | 81 | 1014.8 |
| 20260508130038 | 64 | 207 | 2.6 | 7.0 | 0.00 | 0.00 | 0.00 | 81 | 1014.9 |
| 20260508124536 | 64 | 207 | 4.3 | 5.2 | 0.00 | 0.00 | 0.00 | 82 | 1014.3 |
| 20260508123030 | 63 | 206 | 3.5 | 5.2 | 0.00 | 0.00 | 0.00 | 83 | 1014.2 |
| 20260508121529 | 62 | 206 | 2.6 | 6.1 | 0.00 | 0.00 | 0.00 | 84 | 1014.2 |
| 20260508120028 | 62 | 207 | 2.6 | 5.2 | 0.00 | 0.00 | 0.00 | 84 | 1014.3 |
| 20260508114530 | 62 | 207 | 4.3 | 5.2 | 0.00 | 0.00 | 0.00 | 84 | 1014.5 |
| 20260508113027 | 63 | 207 | 4.3 | 6.1 | 0.00 | 0.00 | 0.00 | 85 | 1014.6 |